Regional Weather Roundup
Issued by NWS

Home | Current Version | Previous Version | Graphics & Text | Print | Product List | Glossary On
Versions: 1 2 3 4 5 6 7 8 9 10 11 12 13 14 15 16 17 18 19 20 21 22 23 24 25 26 27 28 29 30 31 32 33 34 35 36 37 38 39 40 41 42 43 44 45 46 47 48 49 50
000
ASUS43 KMPX 271901
RWRMN
WEATHER ROUNDUP FOR MINNESOTA
NATIONAL WEATHER SERVICE TWIN CITIES/CHANHASSEN MN
200 PM CDT SUN MAY 27 2018


NOTE: "FAIR" INDICATES FEW OR NO CLOUDS BELOW 12,000 FEET WITH NO
SIGNIFICANT WEATHER AND/OR OBSTRUCTIONS TO VISIBILITY. N/A MEANS
CURRENT SKY AND/OR WEATHER CONDITIONS ARE NOT AVAILABLE.

MNZ060>063-068>070-272000-
   Twin Cities Metro

CITY           SKY/WX    TMP DP  RH WIND       PRES   REMARKS
TWIN CITIES    CLOUDY    87  60  40 N12       29.88R
ST PAUL        FAIR      87  58  37 NE16G25   29.88R
CRYSTAL        FAIR      86  57  37 NE6G18    29.86F
BLAINE         PTSUNNY   84  55  37 NE12G17   29.88F
LAKEVILLE      FAIR      90  61  37 N10       29.89R
EDEN PRAIRIE   FAIR      86  58  38 N14G20    29.87F
SOUTH ST PAUL  FAIR      88  54  30 N9        29.88R
LAKE ELMO      FAIR      86  61  42 N6G16     29.92R
$$
MNZ001>005-007-008-013>017-022>024-027-028-272000-
   Northwest Minnesota

CITY           SKY/WX    TMP DP  RH WIND       PRES   REMARKS
BEMIDJI        FAIR      80  58  46 SE6       29.82F
HALLOCK        FAIR      79  66  65 NE7       29.84F
ROSEAU         FAIR      75  64  69 N8        29.86S
WARROAD        FAIR      68  63  83 E6        29.88S
THIEF RVR FALL FAIR      77  60  55 N15       29.84F
CROOKSTON      FAIR      77  61  57 N13       29.83R
FOSSTON        FAIR      77  57  50 N3        29.82R
DETROIT LAKES  FAIR      77  57  50 S8        29.81F
MOORHEAD       FAIR      77  63  61 S14       29.78S
PARK RAPIDS    FAIR      77  63  61 S9        29.82F
MAHNOMEN       FAIR      75  58  57 E10G17    29.74F
$$
MNZ006-009>011-018-025>026-272000-
   North Central Minnesota

CITY           SKY/WX    TMP DP  RH WIND       PRES   REMARKS
BAUDETTE         N/A    N/A N/A N/A MISG      29.86R
FLAG ISLAND    FAIR      70  63  78 NW5       29.86F
INTL FALLS     FAIR      80  62  54 N7        29.85R
WASKISH        FAIR      75  64  69 CALM      29.85R
BIG FORK       FAIR      79  61  53 CALM      29.84F
LONGVILLE      FAIR      75  63  64 S3        29.81F
GRAND RAPIDS   FAIR      76  61  59 W6        29.85R
ORR            FAIR      81  57  44 NW6       29.82S
COOK           FAIR      79  59  50 CALM      29.84S
WALKER         FAIR      73  60  65 CALM      29.81S
$$
MNZ012-019>021-037-272000-
   Northeast Minnesota

CITY           SKY/WX    TMP DP  RH WIND       PRES   REMARKS
DULUTH         FAIR      81  57  43 SE7       29.79F
ELY            FAIR      81  55  41 CALM      29.85S
HIBBING        FAIR      77  59  53 E3        29.82F
EVELETH        FAIR      77  59  53 S3        29.83F
DULUTH HARBOR  FAIR      82  61  47 SW16      29.78F
TWO HARBORS    FAIR      81  61  50 CALM      29.82F
SILVER BAY     FAIR      86  54  32 SW5       29.82F
GRAND MARAIS     N/A     45  42  89 CALM      29.85F
G MARAIS ARPRT FAIR      77  55  47 S7        29.88S
$$
MNZ029>031-032-039>041-046>048-054>057-064-272000-
   West Central Minnesota

CITY           SKY/WX    TMP DP  RH WIND       PRES   REMARKS
FERGUS FALLS   FAIR      82  61  47 SE15      29.75S
WHEATON        CLOUDY    81  64  57 SE15      29.82S
MORRIS         CLOUDY    79  64  61 SE14      29.80F
ALEXANDRIA     FAIR      82  62  50 SE13      29.85F
ELBOW LAKE     FAIR      82  60  48 SE14      29.81F
WADENA         FAIR      79  61  53 SE12      29.81F
GLENWOOD       FAIR      81  64  57 E12       29.84F
APPLETON       CLOUDY    82  61  47 SE15      29.80F
BENSON         CLOUDY    81  61  50 SE12      29.83F
ORTONVILLE     PTSUNNY   84  61  45 SE20G25   29.79F
MADISON        CLOUDY    90  61  37 E15       29.80F
WILLMAR        FAIR      79  61  53 E14G22    29.87F
$$
MNZ033>034-036-042>043-049>051-058-059-272000-
   Central Minnesota

CITY           SKY/WX    TMP DP  RH WIND       PRES   REMARKS
ST CLOUD       FAIR      77  57  50 VRB3      29.86R
SAUK CENTRE    FAIR      76  62  62 E9        29.85F
PAYNESVILLE    FAIR      83  60  46 E10       29.85F
AITKIN         FAIR      72  61  68 S6        29.81F
PINE RIVER     FAIR      70  61  73 S9        29.83F
BRAINERD       FAIR      73  61  65 SE9       29.82F
STAPLES        FAIR      79  57  47 SE8       29.82F
LONG PRAIRIE   FAIR      73  61  64 E7        29.85F
LITTLE FALLS   FAIR      73  63  68 SE3       29.83F
LITCHFIELD     FAIR      81  61  50 E12       29.88S
BUFFALO        FAIR      83  54  36 E8        29.87F
MAPLE LAKE     FAIR      81  60  47 E8        29.87F
HUTCHINSON     FAIR      84  60  44 NE9       29.88S
$$
MNZ037-044-045-052-053-272000-
   East Central Minnesota

CITY           SKY/WX    TMP DP  RH WIND       PRES   REMARKS
PRINCETON      FAIR      77  59  53 S3        29.86R
MORA           FAIR      70  59  68 CALM      29.84F
CAMBRIDGE      FAIR      81  59  47 SW13      29.83F
RUSH CITY      FAIR      74  56  53 E8G17     29.78F
MOOSE LAKE     FAIR      75  61  60 CALM      29.83R
HINCKLEY       FAIR      70  63  78 E6        29.83F
CLOQUET        FAIR      79  52  38 S15       29.80F
MCGREGOR       FAIR      77  61  57 SE8       29.82F
$$
MNZ071>073-080-081-089-090-097-098-272000-
   Southwest Minnesota

CITY           SKY/WX    TMP DP  RH WIND       PRES   REMARKS
MONTEVIDEO     CLOUDY    90  55  31 SE20      29.81F
CANBY          CLOUDY    91  56  30 SE8G17    29.82F
MARSHALL       CLOUDY    92  60  34 SE12      29.82F HX  91
REDWOOD FALLS  CLOUDY    93  55  27 E13       29.82F HX  91
OLIVIA         CLOUDY    84  55  37 E14G23    29.84F
PIPESTONE      SUNNY    N/A N/A N/A SW15      29.84S
WINDOM         MOSUNNY   95  59  30 E9        29.84S HX  94
WORTHINGTON    SUNNY     98  54  22 S8        29.84F HX  96
JACKSON        MOSUNNY   95  55  26 E5        29.86S HX  93
TRACY          MOSUNNY   96  60  30 SE10G16   29.82F HX  96
$$
MNZ065>067-074>077-082>085-091>093-272000-
   South Central Minnesota

CITY           SKY/WX    TMP DP  RH WIND       PRES   REMARKS
MANKATO        FAIR      94  59  31 NE13      29.85F HX  93
NEW ULM        CLOUDY    91  54  27 E9        29.84F
ST JAMES       MOSUNNY   97  50  20 E9        29.83S HX  94
FAIRMONT       CLOUDY    96  56  26 S7        29.84F HX  94
GLENCOE        FAIR      83  58  42 NE9       29.87F
FARIBAULT      FAIR      93  55  27 CALM      29.87F HX  91
OWATONNA       FAIR      93  57  29 CALM      29.87S HX  92
WASECA         FAIR      95  52  23 NE8       29.87F HX  92
ALBERT LEA     FAIR      93  41  16 NE8       29.87S
$$
MNZ078>079-086>088-094>096-272000-
   Southeast Minnesota

CITY           SKY/WX    TMP DP  RH WIND       PRES   REMARKS
ROCHESTER      FAIR      92  58  31 E3        29.89S HX  91
RED WING       FAIR      91  55  29 CALM      29.85S
STANTON        FAIR      93  58  31 N9        29.86R HX  91
DODGE CENTER   FAIR      91  48  22 CALM      29.88F
WINONA         FAIR      91  63  38 CALM      29.86F HX  92
AUSTIN         FAIR      93  48  21 CALM      29.87R HX  90
PRESTON        FAIR      89  56  32 NE8       29.90R
$$
ABBREVIATIONS USED IN REMARKS
   TC - TEMPERATURES IN CELSIUS
  WCI - WIND CHILL INDEX
   HX - HEAT INDEX
  VSB - VISIBILITY
$$



USA.gov is the U.S. government's official web portal to all federal, state and local government web resources and services.